Temp
63 63 63 63 63 63 64 64 64 64 64 64 64 64 63 63 66 71 59 62 66 68 67 73 73 72 74 67 68 69 67 59 56 56 56 57 54 60 60 55 60 61 59 61 60
62 62 62 63 63 63 63 64 64 64 64 64 64 63 63 62 70 66 66 67 67 67 66 66 69 72 69 66 65 67 64 56 56 56 55 55 53 55 54 57 58 59 62 60 58
62 62 62 63 63 63 63 63 64 64 64 64 64 63 62 64 68 64 67 66 66 69 66 67 68 71 66 65 59 59 57 55 53 54 53 53 53 55 52 53 58 56 59 60 57
62 62 62 62 62 63 63 63 64 64 64 64 64 63 62 69 61 66 66 65 68 71 70 69 72 68 63 59 59 54 54 54 52 50 50 50 53 52 54 57 59 58 58 58 57
61 61 61 61 62 62 62 63 63 64 63 64 64 63 65 67 60 69 65 67 70 70 65 66 67 67 60 58 58 55 52 52 51 49 49 50 49 51 53 60 61 58 57 56 56
61 61 61 61 61 62 62 62 63 63 63 63 63 63 73 59 68 69 66 67 65 67 63 64 62 67 60 55 56 53 53 51 50 50 52 45 49 48 57 60 55 55 55 57 57
61 61 60 61 61 61 62 62 62 62 62 64 64 72 67 58 68 69 67 62 64 62 61 61 63 64 63 54 54 53 50 49 50 50 49 48 47 44 58 55 53 55 56 57 57
61 60 60 60 60 61 61 61 61 61 62 63 64 73 59 65 70 67 66 65 67 65 61 61 63 60 58 56 54 54 53 53 49 49 48 48 50 56 58 54 54 56 57 56 57
60 60 60 60 60 60 60 60 61 62 63 64 71 71 60 64 63 66 64 58 63 64 63 63 63 60 55 58 56 58 51 52 51 47 46 46 48 59 57 54 54 57 58 58 57
59 59 59 59 59 59 59 60 63 64 69 71 72 67 64 57 61 62 64 60 58 61 61 62 64 61 58 59 47 48 47 49 48 50 45 44 45 54 59 55 55 57 59 58 57
59 58 59 59 59 58 63 69 68 69 62 56 56 57 58 61 62 63 60 59 63 63 56 57 56 48 47 46 45 42 40 41 49 46 39 46 45 52 58 59 56 56 58 58 57
58 58 58 58 59 60 68 64 55 60 56 58 57 58 57 58 56 60 62 60 61 53 58 57 48 46 44 43 41 45 40 43 47 41 41 44 42 50 55 55 57 56 58 58 58
58 58 58 58 59 64 61 55 60 61 64 55 56 56 55 58 51 52 54 55 52 51 50 51 44 43 41 44 41 48 40 40 36 41 44 39 46 52 52 52 54 57 58 58 57
57 58 57 58 62 64 59 59 61 61 62 57 58 56 58 55 52 53 53 49 52 46 47 45 43 41 42 42 41 37 39 37 36 33 34 40 36 55 58 52 52 55 55 56 57
57 57 57 58 64 62 57 61 61 60 45 58 57 61 59 55 51 53 53 56 46 45 47 43 42 42 42 38 39 41 38 36 35 29 26 36 31 48 50 50 54 57 58 58 58
56 56 57 63 65 57 60 60 60 56 38 54 55 53 57 55 53 56 54 55 49 45 48 42 42 41 39 39 39 41 37 38 34 34 29 28 34 45 53 52 57 59 58 57 56
56 56 60 63 60 59 60 61 57 50 57 52 50 52 51 49 52 50 47 37 41 42 49 46 41 38 38 38 40 39 33 34 33 31 37 31 33 39 52 57 57 55 56 56 55
55 56 56 59 61 59 60 62 48 51 52 50 49 52 50 48 48 49 51 49 43 41 42 40 42 39 38 32 29 34 30 34 29 35 38 34 31 47 56 56 55 54 54 52 53
54 64 63 60 59 59 61 52 51 50 47 47 52 52 53 50 46 52 44 42 35 33 35 39 45 35 34 35 30 34 35 34 30 25 27 41 46 53 54 55 55 54 51 52 54
65 66 63 59 58 59 62 48 50 46 47 48 48 48 48 50 49 50 47 37 33 33 34 36 32 38 30 33 32 30 30 30 31 28 28 42 39 43 50 51 53 53 53 52 52
63 65 61 59 58 65 51 49 46 46 46 46 48 46 43 44 46 46 44 38 37 35 37 32 31 39 34 31 31 29 28 29 28 31 29 29 39 39 42 42 39 45 47 46 46
62 63 62 61 63 59 53 48 45 45 46 45 46 42 43 44 42 46 44 42 38 37 32 31 31 29 41 23 25 27 30 32 32 28 29 22 29 44 37 34 34 35 37 41 42
60 62 64 60 54 54 47 46 47 45 46 45 44 43 43 43 39 45 44 38 40 38 32 31 32 31 34 26 26 26 27 25 26 28 27 27 33 38 37 36 35 35 38 38 40
59 54 62 60 55 46 47 49 46 44 45 45 44 44 42 43 45 41 43 36 38 38 36 36 31 31 34 37 34 29 23 21 26 27 31 28 33 37 39 37 38 38 37 37 37
55 48 47 48 52 50 48 43 47 45 44 44 43 43 40 38 44 42 44 37 35 37 37 32 25 35 36 37 34 31 30 21 18 28 27 34 32 37 38 37 37 37 36 37 37
52 48 48 50 48 50 45 46 47 46 42 43 41 48 45 39 45 41 44 45 43 35 34 33 27 26 22 35 31 27 29 27 24 24 25 26 25 35 37 36 35 35 37 37 37
54 53 47 48 49 49 52 50 45 47 49 48 47 45 41 45 47 44 44 44 42 38 34 30 27 26 28 32 31 28 29 26 28 27 25 23 35 34 36 37 37 37 37 36 36
MSLP
1021.77 1021.63 1021.49 1021.32 1021.05 1020.71 1020.40 1020.12 1019.85 1019.54 1019.20 1018.88 1018.59 1018.31 1018.17 1017.84 1017.13 1016.78 1017.38 1019.48 1018.51 1017.42 1016.64 1015.08 1014.47 1014.11 1013.66 1013.69 1013.68 1013.07 1012.42 1013.72 1015.39 1016.42 1017.63 1019.13 1019.34 1019.56 1019.94 1019.88 1019.60 1019.86 1020.11 1020.67 1021.52
1021.89 1021.73 1021.57 1021.37 1021.11 1020.82 1020.53 1020.24 1019.94 1019.56 1019.22 1018.93 1018.66 1018.52 1018.34 1018.17 1017.27 1017.34 1019.59 1019.07 1018.32 1017.47 1016.31 1015.39 1014.41 1013.80 1013.59 1014.02 1014.15 1013.60 1014.05 1016.12 1017.72 1018.38 1018.90 1019.70 1020.13 1020.05 1019.91 1019.24 1019.14 1019.42 1020.03 1021.01 1021.71
1021.92 1021.78 1021.63 1021.41 1021.18 1020.92 1020.61 1020.33 1019.98 1019.60 1019.27 1019.04 1018.74 1018.58 1018.46 1018.20 1017.37 1018.75 1019.28 1018.80 1018.17 1017.26 1016.62 1015.95 1015.15 1014.05 1014.00 1014.83 1015.80 1015.79 1016.43 1018.10 1019.16 1019.86 1020.33 1020.35 1020.28 1020.29 1019.94 1018.95 1018.68 1019.23 1019.53 1020.21 1021.10
1022.07 1021.93 1021.76 1021.54 1021.26 1020.95 1020.63 1020.34 1020.03 1019.67 1019.32 1019.11 1018.76 1018.55 1018.39 1017.76 1018.92 1019.47 1019.56 1018.99 1018.08 1017.09 1016.05 1015.31 1014.42 1014.06 1014.70 1015.57 1016.89 1017.32 1018.71 1019.22 1020.13 1020.86 1020.98 1020.90 1020.87 1020.16 1019.70 1018.82 1019.23 1019.66 1020.01 1020.32 1020.46
1022.33 1022.16 1021.94 1021.67 1021.35 1021.04 1020.73 1020.41 1020.07 1019.73 1019.37 1019.05 1018.75 1018.54 1018.30 1017.89 1019.95 1020.19 1019.94 1019.15 1018.09 1017.11 1016.43 1015.70 1015.02 1014.91 1015.54 1016.69 1017.40 1017.93 1019.31 1020.10 1020.82 1021.39 1021.51 1021.50 1020.86 1020.31 1019.27 1019.11 1019.17 1019.58 1019.91 1020.03 1020.11
1022.43 1022.26 1022.05 1021.77 1021.43 1021.12 1020.81 1020.46 1020.14 1019.82 1019.46 1019.11 1018.74 1018.42 1017.71 1019.06 1020.87 1020.64 1020.17 1019.43 1018.98 1018.00 1017.54 1016.84 1016.77 1016.22 1016.53 1017.63 1018.07 1019.16 1019.51 1020.18 1021.01 1021.25 1021.28 1021.47 1020.61 1020.62 1018.38 1018.68 1019.16 1019.30 1019.44 1019.48 1019.62
1022.55 1022.37 1022.11 1021.79 1021.46 1021.15 1020.82 1020.43 1020.13 1019.85 1019.55 1019.25 1018.89 1018.14 1018.50 1021.07 1021.07 1020.66 1020.18 1020.06 1019.62 1019.17 1018.40 1018.54 1017.91 1017.03 1017.22 1018.20 1019.34 1019.39 1019.37 1020.06 1020.56 1021.01 1021.12 1021.25 1019.19 1018.76 1017.99 1018.60 1018.65 1018.70 1018.79 1018.93 1019.26
1022.68 1022.43 1022.13 1021.79 1021.46 1021.11 1020.77 1020.42 1020.14 1019.82 1019.52 1019.28 1018.99 1018.05 1019.81 1021.28 1020.97 1020.55 1020.33 1019.65 1019.56 1019.49 1019.34 1019.24 1018.67 1018.12 1018.26 1019.23 1019.07 1018.64 1018.88 1018.87 1020.06 1020.78 1021.19 1021.09 1017.91 1016.95 1017.59 1018.01 1017.90 1017.96 1018.07 1018.31 1018.58
1022.82 1022.48 1022.13 1021.77 1021.40 1021.03 1020.71 1020.36 1020.07 1019.80 1019.55 1019.21 1018.65 1018.28 1020.21 1021.22 1020.92 1020.95 1020.91 1020.50 1019.77 1019.45 1019.36 1019.25 1018.61 1018.31 1019.19 1018.35 1018.09 1017.89 1018.16 1018.64 1019.52 1020.88 1021.18 1020.66 1017.67 1016.21 1017.19 1017.39 1017.11 1017.07 1017.32 1017.57 1017.93
1022.93 1022.50 1022.09 1021.74 1021.36 1020.92 1020.57 1020.31 1019.94 1019.76 1019.19 1018.86 1018.75 1019.24 1020.69 1021.62 1021.68 1021.45 1021.20 1020.87 1019.98 1019.22 1018.92 1018.39 1018.05 1018.02 1018.70 1018.25 1019.22 1019.32 1019.33 1019.33 1019.86 1020.22 1020.59 1019.70 1017.58 1016.58 1016.22 1016.39 1016.31 1016.42 1016.62 1016.97 1017.32
1022.93 1022.50 1022.10 1021.70 1021.34 1020.94 1020.30 1020.20 1020.33 1019.93 1020.48 1021.53 1021.91 1021.70 1022.15 1022.30 1021.91 1021.32 1021.47 1020.59 1019.54 1018.82 1018.62 1018.80 1018.64 1019.79 1021.02 1021.59 1021.77 1021.70 1021.34 1020.89 1020.27 1021.10 1021.15 1018.84 1016.92 1015.33 1014.96 1014.80 1015.18 1015.74 1016.03 1016.31 1016.72
1023.00 1022.57 1022.10 1021.69 1021.40 1020.92 1020.28 1020.58 1022.32 1022.56 1022.51 1022.64 1022.55 1022.61 1023.11 1023.16 1022.10 1021.68 1021.46 1020.43 1019.57 1019.41 1019.23 1019.42 1020.64 1022.48 1023.16 1023.10 1022.86 1022.24 1022.09 1021.39 1020.98 1021.88 1021.54 1018.69 1015.84 1014.15 1013.75 1013.92 1014.46 1015.06 1015.28 1015.76 1016.32
1023.09 1022.56 1022.07 1021.69 1021.38 1021.04 1021.43 1022.66 1023.11 1022.67 1021.80 1022.80 1022.96 1022.97 1023.48 1023.40 1023.32 1023.26 1023.00 1021.97 1021.29 1020.71 1020.71 1020.85 1023.10 1023.87 1024.03 1023.74 1023.58 1022.64 1023.01 1023.01 1023.40 1022.43 1021.04 1020.01 1015.62 1013.30 1013.43 1013.93 1014.27 1014.69 1015.09 1015.46 1015.86
1023.18 1022.64 1022.11 1021.57 1021.65 1021.85 1022.34 1023.23 1023.09 1022.83 1021.81 1022.93 1022.80 1023.57 1023.53 1023.38 1023.70 1024.30 1024.19 1023.79 1022.34 1022.30 1022.25 1022.78 1024.04 1024.44 1024.52 1024.57 1024.85 1024.24 1024.37 1024.47 1024.06 1023.48 1022.06 1020.84 1016.68 1012.89 1012.45 1013.14 1013.64 1014.11 1014.54 1014.89 1015.30
1023.34 1022.85 1022.39 1021.61 1021.85 1022.20 1023.42 1023.30 1023.01 1022.50 1022.18 1023.10 1023.02 1023.50 1023.33 1023.30 1024.08 1023.87 1024.45 1023.11 1023.37 1023.39 1023.40 1023.99 1024.49 1024.82 1025.01 1025.80 1025.98 1025.03 1025.16 1024.77 1024.28 1023.97 1023.18 1020.62 1019.01 1013.37 1012.78 1012.30 1012.25 1012.73 1013.38 1014.26 1015.13
1023.58 1023.12 1022.52 1022.12 1022.04 1023.53 1023.47 1023.25 1022.67 1022.09 1022.13 1022.77 1022.95 1023.09 1022.61 1023.06 1023.57 1023.55 1023.69 1023.91 1024.34 1023.83 1023.56 1024.48 1025.70 1026.03 1026.38 1026.59 1026.44 1025.86 1024.96 1024.39 1024.46 1023.57 1022.56 1020.43 1018.62 1013.11 1011.60 1011.50 1011.51 1012.25 1013.18 1014.12 1014.95
1023.84 1023.60 1022.70 1022.80 1023.24 1023.53 1023.33 1022.50 1021.85 1021.59 1022.48 1022.90 1023.10 1023.07 1023.15 1023.22 1023.24 1023.70 1024.09 1025.01 1025.53 1024.89 1024.04 1024.39 1025.42 1026.62 1027.25 1026.77 1026.67 1026.21 1025.52 1024.11 1023.62 1022.49 1020.73 1019.78 1018.20 1013.38 1012.03 1011.63 1011.96 1012.72 1013.42 1014.22 1014.90
1024.02 1023.78 1023.92 1023.74 1023.69 1023.52 1022.77 1021.82 1021.93 1023.00 1023.02 1023.73 1023.62 1023.15 1023.13 1023.63 1023.55 1023.74 1024.10 1025.36 1026.60 1026.82 1026.32 1025.96 1025.72 1026.82 1027.89 1028.27 1028.02 1027.03 1026.53 1025.46 1024.19 1021.84 1019.77 1018.84 1016.49 1012.49 1011.99 1012.33 1012.72 1013.49 1014.17 1014.75 1015.31
1024.03 1023.42 1023.20 1023.58 1023.71 1023.36 1022.28 1022.06 1023.57 1024.08 1024.64 1024.37 1023.66 1023.27 1023.21 1023.67 1024.03 1023.61 1025.04 1026.55 1028.06 1028.55 1028.58 1027.75 1026.72 1027.60 1028.41 1028.86 1029.31 1028.29 1027.43 1026.93 1025.29 1023.69 1021.54 1016.71 1014.48 1012.42 1012.29 1012.58 1013.22 1013.94 1014.61 1015.11 1015.10
1023.49 1023.02 1023.23 1023.74 1023.68 1022.97 1021.92 1023.73 1024.86 1025.54 1025.64 1025.45 1024.62 1024.43 1023.83 1023.70 1023.82 1024.09 1025.14 1027.59 1028.87 1029.69 1029.92 1029.35 1028.71 1027.45 1028.88 1029.55 1029.86 1029.39 1029.21 1027.76 1026.18 1023.90 1020.72 1016.30 1014.78 1013.37 1013.04 1013.66 1014.27 1014.75 1014.95 1015.02 1015.24
1023.62 1022.72 1023.47 1023.67 1023.56 1022.56 1023.20 1024.66 1025.68 1026.51 1026.70 1026.51 1025.74 1025.34 1025.26 1024.93 1024.83 1025.07 1026.10 1028.13 1029.27 1030.19 1030.54 1030.50 1030.48 1028.11 1028.78 1029.15 1029.40 1030.08 1029.59 1028.57 1027.54 1025.47 1023.21 1019.18 1015.09 1013.87 1014.38 1014.95 1015.39 1015.91 1016.08 1015.85 1015.76
1023.61 1022.81 1023.28 1023.33 1023.00 1023.47 1024.36 1025.73 1026.64 1026.97 1027.32 1027.23 1026.99 1026.54 1026.07 1025.73 1025.62 1025.64 1026.50 1027.88 1029.73 1030.46 1030.91 1031.38 1030.86 1029.19 1027.84 1029.52 1030.15 1029.87 1029.38 1028.62 1027.73 1026.22 1024.80 1023.11 1016.89 1014.69 1015.39 1016.31 1016.47 1016.51 1016.71 1016.33 1015.96
1023.86 1023.29 1022.89 1022.89 1023.30 1024.09 1025.46 1026.13 1026.79 1027.28 1027.48 1027.48 1027.33 1027.25 1027.18 1026.62 1026.48 1026.15 1026.97 1028.79 1029.76 1030.39 1030.94 1031.36 1030.51 1029.07 1027.47 1029.29 1029.62 1029.35 1029.07 1028.87 1028.38 1027.04 1024.26 1023.16 1017.32 1015.91 1016.31 1016.59 1016.81 1016.72 1016.49 1016.20 1015.51
1024.62 1023.95 1023.24 1023.44 1024.86 1024.98 1025.50 1025.94 1026.79 1027.56 1027.65 1027.75 1027.68 1027.69 1027.45 1026.90 1026.74 1026.63 1027.16 1028.90 1029.96 1030.54 1031.22 1031.21 1030.33 1028.82 1027.13 1026.20 1027.42 1028.00 1028.32 1028.95 1028.51 1027.09 1023.63 1021.46 1017.12 1016.39 1016.64 1017.25 1017.05 1016.82 1016.33 1015.55 1014.85
1025.66 1026.18 1026.69 1025.37 1025.19 1025.46 1025.71 1026.22 1026.45 1027.13 1027.70 1027.88 1027.70 1027.31 1027.10 1026.84 1026.45 1026.52 1027.14 1028.80 1030.10 1030.73 1031.08 1031.23 1029.90 1027.90 1025.94 1025.64 1026.03 1025.52 1026.14 1027.42 1027.37 1024.80 1024.24 1018.78 1019.80 1017.00 1017.27 1017.18 1017.04 1016.49 1015.67 1014.74 1014.06
1026.61 1027.04 1027.40 1026.75 1026.52 1025.99 1026.11 1025.87 1026.04 1026.47 1027.09 1027.25 1027.51 1026.89 1027.33 1027.17 1026.46 1026.62 1027.13 1027.63 1028.62 1030.44 1030.88 1031.16 1029.60 1028.32 1026.36 1024.54 1024.49 1024.23 1024.43 1025.25 1025.45 1025.05 1023.91 1021.60 1019.38 1018.88 1017.46 1017.19 1016.73 1015.74 1014.80 1014.35 1013.90
1027.43 1027.69 1027.50 1027.30 1026.80 1026.45 1025.77 1025.90 1026.25 1026.71 1026.56 1026.98 1027.41 1027.71 1027.85 1027.56 1027.56 1027.73 1027.82 1027.89 1028.41 1029.02 1030.00 1030.78 1030.09 1028.57 1025.13 1024.34 1023.81 1022.14 1021.16 1022.54 1022.98 1023.02 1022.37 1021.14 1018.27 1017.45 1016.66 1016.49 1016.41 1014.69 1014.34 1014.03 1013.62
Wind_Speed
7 7 7 7 8 10 10 10 11 12 12 12 11 10 4 9 9 13 19 14 19 25 21 13 5 2 2 5 7 3 2 5 3 1 4 2 4 4 2 8 7 6 7 6 2
6 6 7 7 8 9 9 9 12 13 12 12 11 8 4 4 3 21 17 23 23 21 10 12 7 7 4 5 6 6 3 4 4 3 1 1 4 6 5 8 10 8 8 4 5
7 6 6 7 8 8 9 11 12 13 12 11 11 4 4 6 1 10 25 25 23 18 3 6 6 4 6 6 8 6 4 6 3 3 2 3 7 3 6 8 3 7 6 4 9
8 7 7 7 8 9 10 12 12 12 13 11 11 5 3 5 2 13 25 23 17 14 5 6 3 3 5 7 5 6 4 2 4 1 2 4 7 7 13 8 3 6 7 9 11
8 8 8 8 8 9 10 12 12 13 13 12 10 3 6 8 8 14 20 17 11 11 14 7 12 4 6 6 3 6 5 3 4 1 3 7 10 11 16 12 9 7 8 10 11
9 9 9 9 9 9 10 11 12 12 12 12 11 5 4 8 7 14 14 12 16 14 18 12 9 9 10 6 5 3 5 4 4 3 6 6 8 6 6 10 7 9 9 10 11
11 11 10 10 10 10 13 13 12 12 11 10 9 5 16 8 5 13 13 6 10 12 6 11 5 1 2 6 3 6 3 3 5 2 4 11 9 12 6 7 8 8 9 10 12
12 12 12 11 11 12 14 12 11 11 7 8 7 3 6 1 5 16 15 2 7 6 4 4 5 9 6 6 4 4 4 4 5 4 3 6 7 8 10 9 9 8 8 9 10
13 13 12 12 13 12 14 11 7 5 7 6 3 5 5 3 5 14 11 8 8 2 4 2 1 4 5 3 5 2 7 7 1 3 5 3 12 0 9 10 11 9 7 7 7
13 13 13 13 12 12 10 5 6 5 5 1 3 2 5 9 9 15 8 8 4 5 3 2 1 4 9 7 4 6 7 4 8 6 5 17 24 22 17 18 16 12 9 6 5
14 14 13 12 9 10 5 3 5 3 13 8 4 2 5 13 2 15 9 10 2 3 4 5 6 7 8 9 6 5 7 11 11 8 14 11 21 21 15 16 16 14 11 8 5
15 14 13 12 8 9 5 4 4 4 8 5 3 3 2 6 6 17 18 5 7 6 4 3 6 6 4 4 5 7 9 8 7 3 11 14 27 24 15 9 13 13 12 9 8
16 14 13 11 6 3 9 6 4 4 1 4 4 4 5 7 5 13 14 5 7 8 11 6 5 3 2 4 9 7 5 9 9 17 5 13 12 3 3 5 6 11 10 9 10
16 16 13 10 1 2 4 3 4 4 3 8 4 4 2 4 2 5 7 4 5 6 5 5 2 2 3 2 5 6 5 8 13 12 5 9 7 6 3 5 10 12 14 13 11
16 17 10 14 2 3 3 4 4 4 0 6 3 3 4 6 7 6 2 2 5 4 4 3 3 4 3 3 3 5 6 11 7 3 6 3 4 8 3 7 10 12 13 11 9
14 16 9 1 4 3 4 4 4 2 3 3 3 7 3 5 4 7 3 5 1 1 2 3 1 2 4 3 7 11 9 7 1 2 4 3 4 7 2 3 1 2 4 5 7
11 9 7 3 3 4 4 3 2 3 2 6 4 6 4 7 3 9 6 9 7 5 9 3 3 3 2 4 4 6 5 3 2 2 3 6 6 11 10 2 4 2 2 4 7
6 7 5 3 3 4 3 4 4 1 4 1 3 5 3 8 2 6 4 4 7 4 5 7 5 1 5 3 2 4 2 3 6 8 13 5 8 3 3 2 4 3 5 6 9
7 1 1 5 4 3 4 5 3 3 2 7 3 4 3 1 2 5 5 3 4 6 3 6 4 4 6 2 2 3 1 3 4 1 4 5 7 13 3 0 3 5 2 7 10
3 2 2 6 3 3 2 3 1 2 2 2 4 2 4 7 7 7 2 2 3 1 1 3 9 4 4 1 4 2 2 2 1 6 9 6 4 8 5 9 7 6 7 13 16
3 3 3 3 3 1 4 3 3 2 1 3 3 3 2 4 3 4 2 3 1 3 1 1 2 1 2 6 3 3 2 1 3 2 5 9 5 3 3 2 3 7 10 15 16
3 3 2 2 1 3 3 3 2 2 1 0 1 0 2 2 4 3 3 2 6 5 1 3 2 8 7 4 3 2 1 3 4 3 3 4 13 4 4 2 3 8 11 14 13
3 3 2 3 2 3 3 3 1 1 1 1 1 1 0 2 4 4 3 3 6 4 3 4 3 8 4 4 3 4 5 1 1 2 10 6 9 5 1 3 6 9 13 15 17
3 2 3 4 3 3 0 1 3 1 1 1 1 2 2 5 6 4 4 3 5 4 3 5 4 8 13 10 3 9 9 7 5 7 7 16 27 24 22 15 16 19 17 18 18
5 3 2 3 4 2 0 1 2 3 2 4 4 10 7 4 4 6 4 4 4 5 5 3 7 11 23 19 15 23 17 13 15 19 10 23 12 28 25 23 22 17 21 20 19
2 1 0 2 3 5 1 3 3 3 6 5 6 2 9 6 6 11 9 4 5 8 6 5 6 2 11 10 7 13 8 15 19 18 20 27 33 26 28 18 15 18 21 23 20
1 2 3 2 1 2 2 1 3 2 5 1 6 2 7 11 7 5 5 7 4 6 9 4 5 4 8 2 12 11 9 14 7 9 7 10 12 5 20 15 14 25 23 25 22
Wind_Direction
23 20 13 8 2 2 3 6 8 1 1 2 3 5 20 328 310 50 40 340 330 330 324 303 262 360 21 49 25 299 126 88 72 315 95 114 308 104 317 277 262 268 295 359 350
15 12 9 1 0 0 1 2 357 354 353 358 4 10 16 342 324 49 1 345 340 339 337 358 10 344 66 30 21 10 53 68 34 48 50 272 295 331 281 256 256 247 240 220 248
16 11 7 1 358 353 354 352 354 350 346 352 353 341 343 289 205 14 351 344 341 335 298 307 293 333 64 49 15 15 71 131 112 62 360 282 270 217 274 268 263 286 303 233 224
27 22 11 358 351 347 347 349 353 350 346 355 356 340 285 226 22 355 342 340 341 338 339 310 308 48 63 58 25 98 79 92 141 119 248 277 312 255 241 249 317 282 283 275 266
17 6 357 350 346 344 343 343 345 347 345 349 356 332 259 57 24 342 340 341 355 358 21 12 42 29 81 87 80 83 146 137 166 130 263 295 263 276 268 250 266 277 269 266 259
11 1 353 349 344 340 336 332 334 339 341 347 346 303 277 64 337 352 343 356 8 10 29 26 47 51 86 64 29 96 153 157 178 246 281 291 294 302 246 224 243 253 265 270 265
4 353 345 342 337 332 333 324 324 327 327 340 341 332 63 62 349 351 350 4 3 12 29 29 7 64 120 114 108 141 189 188 192 296 306 316 253 224 228 195 246 258 268 271 275
359 350 343 336 331 327 327 320 319 322 311 322 304 279 71 34 332 11 360 8 11 25 59 16 4 80 29 117 156 255 234 298 126 323 80 341 291 185 182 212 244 271 278 274 275
356 350 343 335 329 322 316 310 308 296 321 293 265 307 59 161 358 356 13 349 322 2 30 294 329 67 174 245 202 193 314 312 289 79 322 250 287 354 193 233 255 269 273 277 289
354 351 344 338 329 326 315 290 310 242 278 206 84 183 61 344 329 327 4 334 334 312 224 354 54 84 31 5 14 328 321 304 288 47 326 283 269 265 246 235 256 262 253 255 283
353 351 345 340 340 340 302 232 210 169 38 50 17 58 354 331 261 14 345 315 251 71 24 27 61 38 25 35 34 339 304 290 286 43 325 301 290 278 268 254 241 243 237 242 258
351 347 345 341 335 330 299 48 38 26 94 49 56 75 358 331 326 10 346 19 23 33 335 186 57 37 27 12 323 310 313 313 326 28 315 307 294 287 270 255 242 223 225 238 254
351 349 346 339 315 352 69 60 339 323 320 57 39 13 350 336 37 348 359 348 15 32 15 41 55 50 348 334 337 332 285 322 303 319 284 307 274 190 155 216 204 224 245 254 258
352 353 350 340 264 1 54 9 330 320 212 19 22 48 305 346 45 346 13 350 50 36 14 60 88 342 313 342 342 294 31 318 317 341 313 10 293 274 147 204 211 227 232 240 247
352 356 348 5 79 48 36 318 307 243 169 357 23 347 351 33 315 51 313 298 35 19 312 43 339 344 293 44 337 313 326 309 309 292 326 163 275 272 144 234 225 229 230 233 248
351 353 325 278 76 43 315 293 246 234 297 22 330 351 315 35 38 317 7 57 17 265 80 84 71 355 356 282 246 309 300 246 297 251 253 99 342 285 199 216 167 114 210 226 249
350 358 19 329 43 336 299 239 228 24 119 355 342 355 337 355 17 15 24 19 21 356 3 207 147 111 345 299 190 286 282 314 298 228 296 154 273 257 296 247 268 282 218 238 256
337 322 40 44 350 307 242 226 61 66 28 30 304 300 11 349 68 350 324 63 66 340 304 344 310 43 26 57 280 339 7 15 314 314 311 150 234 263 347 30 332 300 290 297 292
309 179 83 23 341 281 256 50 27 29 331 335 268 283 128 174 295 325 62 42 28 7 17 336 274 131 51 138 306 57 273 18 292 150 277 235 256 258 97 326 297 260 292 299 308
302 274 53 347 319 252 31 90 101 24 320 256 340 346 317 354 332 5 18 137 152 342 344 59 288 83 127 156 86 337 50 211 147 307 307 264 260 254 310 2 10 291 259 320 323
268 259 66 354 262 259 72 84 132 117 329 341 359 306 349 317 317 322 329 143 198 149 8 135 266 103 188 191 135 141 175 160 308 274 274 300 244 191 213 178 245 286 292 302 307
298 274 58 293 358 33 63 32 38 131 158 92 325 98 274 351 288 280 290 61 142 158 341 72 301 274 311 68 35 30 354 244 244 186 243 290 271 214 172 243 219 257 268 288 294
359 335 125 292 54 80 124 103 12 160 173 206 172 261 22 296 298 244 259 114 165 180 190 163 194 295 216 146 147 212 188 174 0 267 235 253 261 16 91 290 299 290 301 300 294
345 346 44 58 45 72 14 144 160 120 163 191 133 203 222 236 211 280 258 147 183 205 156 171 255 233 261 294 14 255 181 202 216 242 255 224 276 285 287 297 307 305 297 288 282
8 53 26 6 51 55 301 213 192 207 226 211 215 228 191 239 233 237 236 156 180 190 178 222 252 247 265 281 275 263 266 187 202 229 248 273 270 288 301 302 300 296 285 287 288
19 33 278 45 328 302 159 214 223 173 163 208 230 216 209 231 229 310 334 246 310 169 196 176 272 7 285 267 262 264 246 232 226 251 258 264 281 265 272 281 284 279 292 300 297
83 95 119 159 162 299 294 272 248 163 198 280 229 240 235 262 321 344 305 299 280 188 200 205 284 316 274 151 304 273 224 191 200 198 200 230 250 343 303 294 306 296 302 296 297